| time (UTC) | temp F | wind direction | speed MPH | gust MPH | rain 1hr in | rain 24hr in | rain mn in | humidity % | barometer mb |
| 20260510095747 | 49 | 309 | 0.0 | 0.0 | 0.00 | 0.59 | 0.00 | 97 | 1011.7 |
| 20260510095743 | 49 | 309 | 0.0 | 0.0 | 0.00 | 0.58 | 0.00 | 97 | 1011.8 |
| 20260510094743 | 49 | 309 | 0.0 | 0.0 | 0.00 | 0.59 | 0.00 | 97 | 1011.7 |
| 20260510094243 | 49 | 310 | 0.0 | 0.0 | 0.00 | 0.60 | 0.00 | 97 | 1011.6 |
| 20260510093743 | 49 | 309 | 0.0 | 0.0 | 0.00 | 0.60 | 0.00 | 97 | 1011.6 |
| 20260510093245 | 49 | 309 | 0.0 | 0.0 | 0.00 | 0.60 | 0.00 | 97 | 1011.3 |
| 20260510092742 | 49 | 309 | 0.0 | 0.0 | 0.00 | 0.61 | 0.00 | 97 | 1011.3 |
| 20260510092240 | 49 | 310 | 0.0 | 0.0 | 0.00 | 0.61 | 0.00 | 97 | 1011.2 |
| 20260510091741 | 49 | 307 | 0.0 | 0.0 | 0.00 | 0.61 | 0.00 | 97 | 1011.1 |
| 20260510091242 | 49 | 279 | 0.0 | 0.0 | 0.00 | 0.61 | 0.00 | 97 | 1011.1 |
| 20260510090740 | 49 | 262 | 0.0 | 0.0 | 0.00 | 0.62 | 0.00 | 97 | 1010.9 |
| 20260510090239 | 49 | 262 | 0.0 | 0.0 | 0.00 | 0.63 | 0.00 | 97 | 1010.8 |
| 20260510085739 | 49 | 262 | 0.0 | 0.0 | 0.00 | 0.63 | 0.00 | 97 | 1010.9 |
| 20260510085245 | 49 | 334 | 0.0 | 0.0 | 0.00 | 0.65 | 0.00 | 97 | 1011.0 |
| 20260510085241 | 49 | 334 | 0.0 | 0.0 | 0.00 | 0.64 | 0.00 | 97 | 1011.0 |
| 20260510084239 | 49 | 334 | 0.0 | 0.0 | 0.00 | 0.65 | 0.00 | 97 | 1011.0 |
| 20260510083739 | 49 | 334 | 0.0 | 0.0 | 0.00 | 0.65 | 0.00 | 97 | 1010.8 |
| 20260510083239 | 49 | 334 | 0.0 | 0.0 | 0.00 | 0.66 | 0.00 | 97 | 1010.9 |
| 20260510082739 | 49 | 334 | 0.0 | 0.0 | 0.00 | 0.66 | 0.00 | 97 | 1010.8 |
| 20260510082238 | 49 | 334 | 0.0 | 0.0 | 0.00 | 0.66 | 0.00 | 97 | 1010.8 |
| 20260510081742 | 49 | 334 | 0.0 | 0.0 | 0.00 | 0.68 | 0.00 | 97 | 1010.7 |
| 20260510081738 | 49 | 334 | 0.0 | 0.0 | 0.00 | 0.67 | 0.00 | 97 | 1010.8 |
| 20260510080737 | 0 | 244 | 0.0 | 0.0 | 0.00 | 0.68 | 0.00 | 1010.8 | |
| 20260510080241 | 49 | 244 | 0.0 | 0.0 | 0.00 | 0.71 | 0.00 | 97 | 1010.8 |
| 20260510080237 | 49 | 244 | 0.0 | 0.0 | 0.00 | 0.69 | 0.00 | 97 | 1010.7 |
| 20260510075850 | 49 | 244 | 0.0 | 0.0 | 0.00 | 0.71 | 0.00 | 97 | 1011.1 |
| 20260510074736 | 49 | 244 | 0.0 | 0.0 | 0.00 | 0.72 | 0.00 | 97 | 1011.0 |
| 20260510074236 | 49 | 244 | 0.0 | 0.0 | 0.00 | 0.73 | 0.00 | 97 | 1011.0 |
| 20260510073740 | 49 | 244 | 0.0 | 0.0 | 0.00 | 0.74 | 0.00 | 97 | 1011.1 |
| 20260510073736 | 49 | 244 | 0.0 | 0.0 | 0.00 | 0.73 | 0.00 | 97 | 1011.1 |
| 20260510072735 | 49 | 244 | 0.0 | 0.0 | 0.00 | 0.76 | 0.00 | 97 | 1011.1 |
| 20260510072243 | 49 | 244 | 0.0 | 0.0 | 0.00 | 0.79 | 0.00 | 97 | 1011.0 |
| 20260510072236 | 49 | 244 | 0.0 | 0.0 | 0.00 | 0.77 | 0.00 | 97 | 1011.2 |
| 20260510071733 | 49 | 244 | 0.0 | 0.0 | 0.00 | 0.78 | 0.00 | 97 | 1011.2 |
| 20260510070734 | 49 | 244 | 0.0 | 0.0 | 0.00 | 0.80 | 0.00 | 97 | 1011.2 |
| 20260510070234 | 50 | 244 | 0.0 | 0.0 | 0.00 | 0.81 | 0.00 | 97 | 1011.2 |
| 20260510065737 | 0 | 0.0 | 0.0 | 0.00 | 0.84 | 0.00 | 1011.3 | ||
| 20260510065733 | 50 | 244 | 0.0 | 0.0 | 0.00 | 0.82 | 0.00 | 97 | 1011.3 |
| 20260510064733 | 50 | 244 | 0.0 | 0.0 | 0.00 | 0.87 | 0.00 | 97 | 1011.3 |
| 20260510064235 | 50 | 244 | 0.0 | 0.0 | 0.00 | 0.88 | 0.00 | 97 | 1011.6 |
| 20260510064231 | 50 | 244 | 0.0 | 0.0 | 0.00 | 0.88 | 0.00 | 97 | 1011.6 |
| 20260510063231 | 50 | 254 | 0.0 | 0.0 | 0.00 | 0.88 | 0.00 | 97 | 1011.8 |
| 20260510062730 | 50 | 255 | 0.0 | 0.0 | 0.00 | 0.88 | 0.00 | 97 | 1011.8 |
| 20260510062231 | 50 | 255 | 0.0 | 0.0 | 0.00 | 0.88 | 0.00 | 97 | 1011.8 |
| 20260510061730 | 0 | 0.0 | 0.0 | 0.00 | 0.88 | 0.00 | 1011.8 | ||
| 20260510061234 | 49 | 312 | 0.0 | 0.0 | 0.00 | 0.88 | 0.00 | 97 | 1011.6 |
| 20260510061229 | 50 | 252 | 0.0 | 0.0 | 0.00 | 0.88 | 0.00 | 97 | 1011.8 |
| 20260510060729 | 50 | 252 | 0.0 | 0.0 | 0.00 | 0.88 | 0.00 | 97 | 1011.7 |
| 20260510055733 | 49 | 279 | 0.0 | 0.0 | 0.00 | 0.88 | 0.00 | 97 | 1011.5 |
| 20260510055729 | 49 | 312 | 0.0 | 0.0 | 0.00 | 0.88 | 0.00 | 97 | 1011.3 |
| 20260510054728 | 49 | 279 | 0.0 | 0.0 | 0.00 | 0.88 | 0.00 | 97 | 1011.6 |
| 20260510054228 | 49 | 268 | 0.0 | 0.0 | 0.00 | 0.88 | 0.00 | 97 | 1011.3 |
| 20260510053728 | 50 | 268 | 0.0 | 0.0 | 0.00 | 0.88 | 0.00 | 97 | 1011.3 |
| 20260510053229 | 50 | 268 | 0.0 | 0.0 | 0.00 | 0.88 | 0.00 | 97 | 1011.3 |
| 20260510052726 | 50 | 268 | 0.0 | 0.0 | 0.00 | 0.88 | 0.00 | 97 | 1011.2 |
| 20260510052231 | 50 | 259 | 0.0 | 0.0 | 0.00 | 0.88 | 0.00 | 96 | 1011.2 |
| 20260510052226 | 50 | 259 | 0.0 | 0.0 | 0.00 | 0.88 | 0.00 | 97 | 1011.2 |
| 20260510051228 | 50 | 259 | 0.0 | 0.0 | 0.00 | 0.88 | 0.00 | 96 | 1011.2 |
| 20260510050727 | 50 | 259 | 0.0 | 0.0 | 0.00 | 0.88 | 0.00 | 96 | 1011.3 |
| 20260510050226 | 50 | 259 | 0.0 | 0.0 | 0.00 | 0.88 | 0.00 | 96 | 1011.3 |
| 20260510045726 | 51 | 259 | 0.0 | 0.0 | 0.00 | 0.88 | 0.00 | 96 | 1011.3 |
| 20260510045225 | 51 | 259 | 0.0 | 0.0 | 0.00 | 0.88 | 0.00 | 96 | 1011.2 |
| 20260510044729 | 51 | 185 | 0.0 | 0.0 | 0.00 | 0.88 | 0.00 | 97 | 1011.3 |
| 20260510044725 | 51 | 240 | 0.0 | 0.0 | 0.00 | 0.88 | 0.00 | 97 | 1011.2 |
| 20260510043726 | 51 | 185 | 0.0 | 0.0 | 0.00 | 0.88 | 0.00 | 97 | 1011.2 |
| 20260510043225 | 51 | 185 | 0.0 | 0.0 | 0.00 | 0.88 | 0.00 | 96 | 1011.2 |
| 20260510042728 | 51 | 185 | 0.0 | 0.0 | 0.00 | 0.88 | 0.00 | 96 | 1011.1 |
| 20260510042724 | 51 | 185 | 0.0 | 0.0 | 0.00 | 0.88 | 0.00 | 96 | 1011.1 |
| 20260510041726 | 51 | 185 | 0.0 | 0.0 | 0.00 | 0.88 | 0.00 | 96 | 1011.1 |
| 20260510041225 | 51 | 185 | 0.0 | 0.0 | 0.00 | 0.88 | 0.00 | 96 | 1011.1 |
| 20260510040725 | 0 | 0.0 | 0.0 | 0.00 | 0.88 | 0.00 | 1011.1 | ||
| 20260510040224 | 0 | 0.0 | 0.0 | 0.00 | 0.88 | 0.00 | 1011.1 | ||
| 20260510035723 | 51 | 154 | 0.0 | 0.0 | 0.00 | 0.88 | 0.87 | 96 | 1011.0 |
| 20260510035222 | 51 | 154 | 0.0 | 0.0 | 0.00 | 0.88 | 0.87 | 96 | 1011.0 |
| 20260510034721 | 51 | 154 | 0.0 | 0.0 | 0.00 | 0.88 | 0.87 | 96 | 1010.8 |
| 20260510034221 | 51 | 154 | 0.0 | 0.0 | 0.00 | 0.88 | 0.87 | 96 | 1010.8 |
| 20260510033722 | 51 | 154 | 0.0 | 0.0 | 0.00 | 0.88 | 0.87 | 96 | 1010.9 |
| 20260510033221 | 51 | 154 | 0.0 | 0.0 | 0.00 | 0.88 | 0.87 | 96 | 1010.9 |
| 20260510032727 | 51 | 154 | 0.0 | 0.0 | 0.00 | 0.88 | 0.87 | 96 | 1010.9 |
| 20260510032721 | 51 | 154 | 0.0 | 0.0 | 0.00 | 0.88 | 0.87 | 96 | 1011.0 |
| 20260510031721 | 51 | 154 | 0.0 | 0.0 | 0.00 | 0.88 | 0.87 | 96 | 1010.9 |
| 20260510031220 | 51 | 154 | 0.0 | 0.0 | 0.00 | 0.88 | 0.87 | 96 | 1011.0 |
| 20260510030721 | 51 | 259 | 0.0 | 0.0 | 0.00 | 0.88 | 0.87 | 96 | 1011.1 |
| 20260510030219 | 51 | 259 | 0.0 | 0.0 | 0.00 | 0.88 | 0.87 | 96 | 1011.1 |
| 20260510025720 | 51 | 259 | 0.0 | 0.0 | 0.00 | 0.88 | 0.87 | 96 | 1011.1 |
| 20260510025220 | 51 | 259 | 0.0 | 0.0 | 0.00 | 0.88 | 0.87 | 96 | 1011.0 |
| 20260510024718 | 51 | 259 | 0.0 | 0.0 | 0.00 | 0.88 | 0.87 | 96 | 1011.0 |
| 20260510024222 | 51 | 259 | 0.0 | 0.0 | 0.00 | 0.88 | 0.87 | 96 | 1011.0 |
| 20260510024218 | 51 | 259 | 0.0 | 0.0 | 0.00 | 0.88 | 0.87 | 96 | 1011.0 |
| 20260510023218 | 51 | 259 | 0.0 | 0.0 | 0.00 | 0.88 | 0.87 | 96 | 1011.0 |
| 20260510022718 | 51 | 259 | 0.0 | 0.0 | 0.00 | 0.88 | 0.87 | 96 | 1011.0 |
| 20260510022219 | 51 | 259 | 0.0 | 0.0 | 0.00 | 0.88 | 0.87 | 96 | 1010.8 |
| 20260510021718 | 51 | 258 | 0.0 | 0.0 | 0.00 | 0.88 | 0.87 | 96 | 1010.7 |
| 20260510021218 | 51 | 259 | 0.0 | 0.0 | 0.00 | 0.88 | 0.87 | 96 | 1010.8 |
| 20260510020722 | 51 | 259 | 0.0 | 0.0 | 0.00 | 0.88 | 0.87 | 96 | 1010.8 |
| 20260510020718 | 51 | 259 | 0.0 | 0.0 | 0.00 | 0.88 | 0.87 | 96 | 1010.7 |
| 20260510015722 | 51 | 259 | 0.0 | 0.0 | 0.00 | 0.88 | 0.87 | 96 | 1010.6 |
| 20260510015717 | 51 | 259 | 0.0 | 0.0 | 0.00 | 0.88 | 0.87 | 96 | 1010.6 |
| 20260510014717 | 51 | 259 | 0.0 | 0.0 | 0.00 | 0.88 | 0.87 | 96 | 1010.6 |
| 20260510014216 | 51 | 259 | 0.0 | 0.0 | 0.00 | 0.88 | 0.87 | 95 | 1010.6 |
| 20260510013716 | 51 | 259 | 0.0 | 0.0 | 0.00 | 0.88 | 0.87 | 95 | 1010.6 |
| 20260510013217 | 51 | 259 | 0.0 | 0.0 | 0.00 | 0.88 | 0.87 | 95 | 1010.7 |
| 20260510012716 | 51 | 259 | 0.0 | 0.0 | 0.00 | 0.88 | 0.87 | 95 | 1010.7 |
| 20260510012216 | 51 | 259 | 0.0 | 0.0 | 0.00 | 0.88 | 0.87 | 95 | 1010.8 |
| 20260510011719 | 51 | 340 | 0.0 | 0.0 | 0.00 | 0.88 | 0.87 | 95 | 1010.7 |
| 20260510011715 | 51 | 254 | 0.0 | 0.0 | 0.00 | 0.88 | 0.87 | 95 | 1010.8 |
| 20260510010723 | 52 | 340 | 0.0 | 0.0 | 0.00 | 0.88 | 0.87 | 94 | 1010.5 |
| 20260510010715 | 52 | 340 | 0.0 | 0.0 | 0.00 | 0.88 | 0.87 | 95 | 1010.7 |
| 20260510010216 | 52 | 340 | 0.0 | 0.0 | 0.00 | 0.88 | 0.87 | 95 | 1010.6 |
| 20260510005214 | 52 | 340 | 0.0 | 0.0 | 0.00 | 0.88 | 0.87 | 94 | 1010.5 |
| 20260510004713 | 52 | 340 | 0.0 | 0.0 | 0.00 | 0.88 | 0.87 | 94 | 1010.4 |
| 20260510004214 | 52 | 340 | 0.0 | 0.0 | 0.00 | 0.88 | 0.87 | 94 | 1010.4 |
| 20260510003713 | 52 | 340 | 0.0 | 0.0 | 0.00 | 0.88 | 0.87 | 94 | 1010.3 |
| 20260510003213 | 52 | 340 | 0.0 | 0.0 | 0.00 | 0.88 | 0.87 | 94 | 1010.1 |
| 20260510002712 | 53 | 340 | 0.0 | 0.0 | 0.00 | 0.88 | 0.87 | 93 | 1010.1 |
| 20260510002213 | 53 | 340 | 0.0 | 0.0 | 0.00 | 0.88 | 0.87 | 93 | 1009.9 |
| 20260510001714 | 53 | 340 | 0.0 | 0.0 | 0.00 | 0.88 | 0.87 | 93 | 1010.0 |
| 20260510001212 | 53 | 340 | 0.0 | 0.0 | 0.00 | 0.88 | 0.87 | 93 | 1010.0 |
| 20260510000713 | 53 | 340 | 0.0 | 0.0 | 0.00 | 0.88 | 0.87 | 93 | 1010.0 |
| 20260510000212 | 53 | 340 | 0.0 | 0.0 | 0.00 | 0.88 | 0.87 | 93 | 1010.1 |
| 20260509235712 | 53 | 341 | 0.0 | 0.0 | 0.00 | 0.88 | 0.87 | 92 | 1010.0 |
| 20260509235210 | 54 | 338 | 0.0 | 0.0 | 0.00 | 0.88 | 0.87 | 92 | 1009.9 |
| 20260509234712 | 54 | 338 | 0.0 | 0.0 | 0.00 | 0.88 | 0.87 | 92 | 1009.9 |
| 20260509234211 | 54 | 338 | 0.0 | 0.0 | 0.00 | 0.88 | 0.87 | 91 | 1009.7 |
| 20260509233711 | 0 | 0.0 | 0.0 | 0.00 | 0.88 | 0.87 | 1009.5 | ||
| 20260509233211 | 54 | 338 | 0.0 | 0.0 | 0.00 | 0.88 | 0.87 | 91 | 1009.4 |
| 20260509232710 | 54 | 338 | 0.0 | 0.0 | 0.00 | 0.88 | 0.87 | 91 | 1009.4 |
| 20260509232209 | 54 | 338 | 0.0 | 0.0 | 0.00 | 0.88 | 0.87 | 91 | 1009.4 |
| 20260509231709 | 54 | 338 | 0.0 | 0.0 | 0.00 | 0.88 | 0.87 | 90 | 1009.3 |
| 20260509231209 | 54 | 338 | 0.0 | 0.0 | 0.00 | 0.88 | 0.87 | 90 | 1009.3 |
| 20260509230709 | 55 | 338 | 0.0 | 0.0 | 0.00 | 0.88 | 0.87 | 90 | 1009.3 |
| 20260509230209 | 55 | 217 | 0.0 | 0.0 | 0.00 | 0.88 | 0.87 | 90 | 1009.2 |
| 20260509225708 | 55 | 240 | 0.0 | 0.0 | 0.00 | 0.88 | 0.87 | 90 | 1009.2 |
| 20260509225208 | 55 | 111 | 0.0 | 0.0 | 0.00 | 0.88 | 0.87 | 90 | 1009.2 |
| 20260509224712 | 0 | 0.0 | 0.0 | 0.00 | 0.88 | 0.87 | 1009.4 | ||
| 20260509224708 | 55 | 140 | 0.0 | 0.0 | 0.00 | 0.88 | 0.87 | 90 | 1009.4 |
| 20260509223712 | 56 | 288 | 0.0 | 0.0 | 0.00 | 0.88 | 0.87 | 91 | 1009.6 |
| 20260509223707 | 56 | 288 | 0.0 | 0.0 | 0.00 | 0.88 | 0.87 | 91 | 1009.6 |
| 20260509222706 | 56 | 288 | 0.0 | 0.0 | 0.00 | 0.88 | 0.87 | 91 | 1009.5 |
| 20260509222206 | 56 | 288 | 0.0 | 0.0 | 0.00 | 0.88 | 0.87 | 91 | 1009.5 |
| 20260509221705 | 56 | 290 | 0.0 | 0.0 | 0.00 | 0.88 | 0.87 | 91 | 1009.5 |
| 20260509221205 | 56 | 320 | 0.0 | 0.0 | 0.00 | 0.88 | 0.87 | 93 | 1009.4 |
| 20260509220707 | 55 | 261 | 0.0 | 0.0 | 0.00 | 0.88 | 0.87 | 94 | 1009.4 |
| 20260509220205 | 0 | 0.0 | 0.0 | 0.00 | 0.88 | 0.87 | 1009.5 | ||
| 20260509215704 | 55 | 228 | 0.0 | 0.0 | 0.00 | 0.88 | 0.87 | 94 | 1009.5 |
| 20260509215204 | 55 | 228 | 0.0 | 0.0 | 0.00 | 0.88 | 0.87 | 94 | 1009.6 |
| 20260509214702 | 55 | 193 | 0.0 | 0.0 | 0.00 | 0.88 | 0.87 | 94 | 1009.6 |
| 20260509214205 | 55 | 125 | 0.0 | 0.0 | 0.00 | 0.88 | 0.87 | 94 | 1009.7 |
| 20260509213704 | 54 | 230 | 0.0 | 0.0 | 0.00 | 0.88 | 0.87 | 94 | 1009.7 |
| 20260509213204 | 54 | 230 | 0.0 | 0.0 | 0.00 | 0.88 | 0.87 | 95 | 1009.8 |
| 20260509212709 | 54 | 330 | 0.0 | 0.0 | 0.01 | 0.88 | 0.87 | 96 | 1009.8 |
| 20260509212704 | 54 | 341 | 0.0 | 0.0 | 0.01 | 0.88 | 0.87 | 95 | 1009.7 |
| 20260509211706 | 0 | 0.0 | 0.0 | 0.01 | 0.88 | 0.87 | 1010.0 | ||
| 20260509211702 | 54 | 330 | 0.0 | 0.0 | 0.01 | 0.88 | 0.87 | 96 | 1009.9 |
| 20260509210700 | 0 | 0.0 | 0.0 | 0.01 | 0.88 | 0.87 | 1010.0 | ||
| 20260509210159 | 54 | 251 | 0.0 | 0.0 | 0.02 | 0.88 | 0.87 | 96 | 1010.0 |
| 20260509205703 | 53 | 251 | 0.0 | 0.0 | 0.03 | 0.88 | 0.87 | 96 | 1010.2 |
| 20260509205658 | 54 | 251 | 0.0 | 0.0 | 0.02 | 0.88 | 0.87 | 96 | 1010.1 |
| 20260509204658 | 53 | 251 | 0.0 | 0.0 | 0.03 | 0.88 | 0.87 | 96 | 1010.1 |
| 20260509204158 | 53 | 245 | 0.0 | 0.0 | 0.04 | 0.88 | 0.87 | 96 | 1010.2 |
| 20260509203659 | 53 | 245 | 0.0 | 0.0 | 0.04 | 0.88 | 0.87 | 96 | 1010.2 |
| 20260509203158 | 53 | 245 | 0.0 | 0.0 | 0.04 | 0.88 | 0.87 | 96 | 1010.3 |
| 20260509202658 | 53 | 345 | 0.0 | 0.0 | 0.04 | 0.87 | 0.86 | 96 | 1010.3 |
| 20260509202157 | 53 | 8 | 0.0 | 0.0 | 0.04 | 0.87 | 0.86 | 96 | 1010.4 |
| 20260509201656 | 53 | 59 | 0.0 | 0.0 | 0.05 | 0.87 | 0.86 | 96 | 1010.3 |
| 20260509201156 | 53 | 54 | 0.0 | 0.0 | 0.07 | 0.87 | 0.86 | 96 | 1010.5 |
| 20260509200656 | 53 | 54 | 0.0 | 0.0 | 0.07 | 0.87 | 0.86 | 96 | 1010.6 |
| 20260509200157 | 52 | 54 | 0.0 | 0.0 | 0.06 | 0.86 | 0.85 | 96 | 1010.6 |
| 20260509195656 | 52 | 54 | 0.0 | 0.0 | 0.06 | 0.86 | 0.85 | 96 | 1010.8 |
| 20260509195156 | 52 | 54 | 0.0 | 0.0 | 0.05 | 0.85 | 0.84 | 96 | 1010.9 |
| 20260509194656 | 52 | 51 | 0.0 | 0.0 | 0.05 | 0.85 | 0.84 | 96 | 1010.9 |
| 20260509194201 | 51 | 106 | 0.0 | 0.0 | 0.05 | 0.84 | 0.83 | 96 | 1011.1 |
| 20260509194155 | 52 | 104 | 0.0 | 0.0 | 0.04 | 0.84 | 0.83 | 96 | 1011.0 |
| 20260509193656 | 51 | 87 | 0.0 | 0.0 | 0.05 | 0.84 | 0.83 | 96 | 1011.0 |
| 20260509192656 | 51 | 92 | 0.0 | 0.0 | 0.05 | 0.83 | 0.82 | 96 | 1011.2 |
| 20260509192154 | 51 | 92 | 0.0 | 0.0 | 0.07 | 0.83 | 0.82 | 96 | 1011.3 |
| 20260509191654 | 51 | 93 | 0.0 | 0.0 | 0.06 | 0.82 | 0.81 | 96 | 1011.2 |
| 20260509191155 | 0 | 0.0 | 0.0 | 0.04 | 0.80 | 0.79 | 1011.2 | ||
| 20260509190653 | 0 | 0.0 | 0.0 | 0.06 | 0.80 | 0.79 | 1011.1 | ||
| 20260509190153 | 0 | 0.0 | 0.0 | 0.06 | 0.80 | 0.79 | 1011.3 | ||
| 20260509185652 | 51 | 118 | 0.0 | 0.0 | 0.07 | 0.80 | 0.79 | 96 | 1011.3 |
| 20260509185157 | 50 | 96 | 0.0 | 0.0 | 0.10 | 0.80 | 0.79 | 96 | 1011.6 |
| 20260509185152 | 51 | 118 | 0.0 | 0.0 | 0.08 | 0.80 | 0.79 | 96 | 1011.3 |
| 20260509184651 | 51 | 131 | 0.0 | 0.0 | 0.09 | 0.80 | 0.79 | 96 | 1011.6 |
| 20260509183650 | 50 | 94 | 0.0 | 0.0 | 0.10 | 0.79 | 0.78 | 96 | 1011.7 |
| 20260509183151 | 50 | 83 | 0.0 | 0.0 | 0.12 | 0.79 | 0.78 | 96 | 1011.6 |
| 20260509182652 | 50 | 120 | 0.0 | 0.0 | 0.12 | 0.78 | 0.77 | 96 | 1011.5 |
| 20260509182150 | 0 | 0.0 | 0.0 | 0.10 | 0.76 | 0.75 | 1011.6 | ||
| 20260509181649 | 50 | 94 | 0.0 | 0.0 | 0.11 | 0.76 | 0.75 | 96 | 1011.5 |
| 20260509181148 | 50 | 94 | 0.0 | 0.0 | 0.12 | 0.76 | 0.75 | 96 | 1011.5 |
| 20260509180649 | 50 | 118 | 0.0 | 0.0 | 0.11 | 0.74 | 0.74 | 96 | 1011.5 |
| 20260509180150 | 50 | 83 | 0.0 | 0.0 | 0.12 | 0.74 | 0.73 | 96 | 1011.3 |
| 20260509175648 | 49 | 86 | 0.0 | 0.0 | 0.11 | 0.73 | 0.72 | 96 | 1011.2 |
| 20260509175148 | 49 | 96 | 0.0 | 0.0 | 0.11 | 0.72 | 0.71 | 96 | 1011.3 |
| 20260509174646 | 49 | 93 | 0.0 | 0.0 | 0.10 | 0.71 | 0.70 | 95 | 1011.2 |
| 20260509174148 | 49 | 87 | 0.0 | 0.0 | 0.10 | 0.70 | 0.69 | 95 | 1011.2 |
| 20260509173648 | 49 | 89 | 0.0 | 0.0 | 0.09 | 0.69 | 0.68 | 95 | 1011.3 |
| 20260509173146 | 49 | 87 | 0.0 | 0.0 | 0.08 | 0.67 | 0.67 | 95 | 1011.2 |
| 20260509172648 | 49 | 87 | 0.0 | 0.0 | 0.07 | 0.66 | 0.65 | 95 | 1011.2 |
| 20260509172147 | 49 | 87 | 0.0 | 0.0 | 0.09 | 0.66 | 0.65 | 95 | 1011.2 |
| 20260509171646 | 49 | 87 | 0.0 | 0.0 | 0.08 | 0.65 | 0.64 | 95 | 1011.2 |
| 20260509171152 | 49 | 87 | 0.0 | 0.0 | 0.06 | 0.63 | 0.62 | 95 | 1011.3 |
| 20260509171146 | 49 | 87 | 0.0 | 0.0 | 0.07 | 0.64 | 0.63 | 95 | 1011.3 |
| 20260509170146 | 49 | 96 | 0.0 | 0.0 | 0.06 | 0.62 | 0.61 | 95 | 1011.3 |
| 20260509165646 | 49 | 97 | 0.0 | 0.0 | 0.07 | 0.62 | 0.61 | 95 | 1011.3 |
| 20260509165146 | 49 | 96 | 0.0 | 0.0 | 0.06 | 0.61 | 0.60 | 95 | 1011.3 |
| 20260509164645 | 49 | 87 | 0.0 | 0.0 | 0.07 | 0.61 | 0.60 | 95 | 1011.5 |
| 20260509164149 | 49 | 100 | 0.0 | 0.0 | 0.08 | 0.60 | 0.59 | 95 | 1011.7 |
| 20260509164144 | 49 | 100 | 0.0 | 0.0 | 0.08 | 0.60 | 0.59 | 95 | 1011.7 |
| 20260509163145 | 49 | 89 | 0.0 | 0.0 | 0.07 | 0.59 | 0.58 | 95 | 1011.7 |
| 20260509162643 | 49 | 104 | 0.0 | 0.0 | 0.08 | 0.59 | 0.58 | 95 | 1011.8 |
| 20260509162145 | 49 | 266 | 0.0 | 0.0 | 0.07 | 0.57 | 0.56 | 95 | 1011.9 |
| 20260509161643 | 49 | 266 | 0.0 | 0.0 | 0.08 | 0.57 | 0.56 | 95 | 1011.9 |
| 20260509161142 | 49 | 266 | 0.0 | 0.0 | 0.08 | 0.57 | 0.56 | 95 | 1012.0 |
| 20260509160642 | 49 | 266 | 0.0 | 0.0 | 0.09 | 0.57 | 0.56 | 95 | 1012.1 |
| 20260509160141 | 49 | 266 | 0.0 | 0.0 | 0.09 | 0.56 | 0.55 | 95 | 1012.2 |
| 20260509155645 | 49 | 220 | 0.0 | 0.0 | 0.09 | 0.55 | 0.54 | 95 | 1012.2 |
| 20260509155142 | 49 | 220 | 0.0 | 0.0 | 0.09 | 0.55 | 0.54 | 95 | 1012.1 |
| 20260509154642 | 49 | 219 | 0.0 | 0.0 | 0.09 | 0.54 | 0.53 | 95 | 1012.2 |
| 20260509154142 | 49 | 254 | 0.0 | 0.0 | 0.08 | 0.52 | 0.51 | 95 | 1012.2 |
| 20260509153640 | 49 | 254 | 0.0 | 0.0 | 0.09 | 0.52 | 0.51 | 95 | 1012.2 |
| 20260509153146 | 48 | 254 | 0.0 | 0.0 | 0.09 | 0.51 | 0.50 | 95 | 1012.3 |
| 20260509153142 | 48 | 254 | 0.0 | 0.0 | 0.09 | 0.52 | 0.51 | 95 | 1012.3 |
| 20260509152146 | 48 | 104 | 0.0 | 0.0 | 0.08 | 0.48 | 0.47 | 96 | 1012.5 |
| 20260509152139 | 48 | 259 | 0.0 | 0.0 | 0.09 | 0.50 | 0.49 | 95 | 1012.5 |
| 20260509151640 | 48 | 248 | 0.0 | 0.0 | 0.08 | 0.49 | 0.48 | 95 | 1012.5 |
| 20260509151139 | 48 | 248 | 0.0 | 53.0 | 0.09 | 0.49 | 0.48 | 95 | 1012.4 |
| 20260509150748 | 48 | 104 | 0.0 | 0.0 | 0.08 | 0.47 | 0.46 | 96 | 1012.5 |
| 20260509145639 | 48 | 104 | 0.0 | 0.0 | 0.07 | 0.46 | 0.45 | 96 | 1012.7 |
| 20260509145138 | 48 | 104 | 0.0 | 0.0 | 0.08 | 0.46 | 0.45 | 96 | 1012.6 |
| 20260509144648 | 48 | 103 | 0.0 | 0.0 | 0.07 | 0.44 | 0.43 | 96 | 1012.7 |
| 20260509144640 | 48 | 103 | 0.0 | 0.0 | 0.08 | 0.45 | 0.44 | 96 | 1012.6 |
| 20260509144150 | 48 | 103 | 0.0 | 0.0 | 0.07 | 0.44 | 0.43 | 96 | 1012.7 |
| 20260509143637 | 47 | 103 | 0.0 | 0.0 | 0.06 | 0.43 | 0.43 | 96 | 1012.7 |
| 20260509143138 | 47 | 103 | 0.0 | 0.0 | 0.07 | 0.43 | 0.42 | 96 | 1012.6 |
| 20260509142637 | 47 | 103 | 0.0 | 0.0 | 0.07 | 0.42 | 0.41 | 96 | 1012.5 |
| 20260509142138 | 47 | 103 | 0.0 | 0.0 | 0.06 | 0.41 | 0.40 | 96 | 1012.6 |
| 20260509141636 | 47 | 103 | 0.0 | 0.0 | 0.07 | 0.41 | 0.40 | 96 | 1012.7 |
| 20260509141142 | 47 | 103 | 0.0 | 0.0 | 0.07 | 0.40 | 0.39 | 96 | 1012.8 |
| 20260509141138 | 47 | 103 | 0.0 | 0.0 | 0.06 | 0.40 | 0.39 | 96 | 1012.8 |
| 20260509140136 | 47 | 103 | 0.0 | 0.0 | 0.06 | 0.39 | 0.38 | 96 | 1012.8 |
| 20260509135637 | 47 | 92 | 0.0 | 0.0 | 0.06 | 0.39 | 0.38 | 96 | 1012.8 |
| 20260509135141 | 46 | 92 | 0.0 | 0.0 | 0.04 | 0.37 | 0.36 | 95 | 1012.8 |
| 20260509135136 | 46 | 92 | 0.0 | 0.0 | 0.05 | 0.38 | 0.37 | 95 | 1012.9 |
| 20260509134135 | 46 | 92 | 0.0 | 0.0 | 0.04 | 0.37 | 0.36 | 95 | 1012.7 |
| 20260509133636 | 46 | 83 | 0.0 | 0.0 | 0.05 | 0.37 | 0.36 | 95 | 1012.8 |
| 20260509133136 | 46 | 83 | 0.0 | 0.0 | 0.04 | 0.36 | 0.35 | 96 | 1012.7 |
| 20260509132635 | 46 | 117 | 0.0 | 0.0 | 0.03 | 0.35 | 0.34 | 96 | 1012.8 |
| 20260509132135 | 46 | 228 | 0.0 | 0.0 | 0.03 | 0.35 | 0.34 | 95 | 1012.7 |
| 20260509131635 | 45 | 228 | 0.0 | 0.0 | 0.02 | 0.34 | 0.33 | 95 | 1012.7 |
| 20260509131140 | 45 | 100 | 0.0 | 0.0 | 0.01 | 0.33 | 0.32 | 95 | 1012.5 |
| 20260509131136 | 45 | 228 | 0.0 | 0.0 | 0.02 | 0.34 | 0.33 | 95 | 1012.6 |
| 20260509130135 | 45 | 100 | 0.0 | 0.0 | 0.01 | 0.33 | 0.32 | 95 | 1012.4 |
| 20260509125633 | 45 | 100 | 0.0 | 0.0 | 0.01 | 0.33 | 0.32 | 96 | 1012.4 |
| 20260509125139 | 45 | 100 | 0.0 | 0.0 | 0.01 | 0.33 | 0.32 | 95 | 1012.5 |
| 20260509125135 | 45 | 100 | 0.0 | 0.0 | 0.01 | 0.33 | 0.32 | 95 | 1012.5 |
| 20260509124139 | 45 | 107 | 0.0 | 0.0 | 0.00 | 0.32 | 0.31 | 95 | 1012.5 |
| 20260509124134 | 45 | 107 | 0.0 | 0.0 | 0.01 | 0.33 | 0.32 | 95 | 1012.5 |
| 20260509123133 | 45 | 113 | 0.0 | 0.0 | 0.00 | 0.32 | 0.31 | 95 | 1012.7 |
| 20260509122633 | 45 | 113 | 0.0 | 0.0 | 0.00 | 0.32 | 0.31 | 95 | 1012.6 |
| 20260509122134 | 45 | 97 | 0.0 | 0.0 | 0.00 | 0.32 | 0.31 | 95 | 1012.6 |
| 20260509121632 | 45 | 96 | 0.0 | 0.0 | 0.00 | 0.32 | 0.31 | 95 | 1012.6 |
| 20260509121142 | 44 | 144 | 0.0 | 0.0 | 0.01 | 0.32 | 0.31 | 95 | 1012.8 |
| 20260509121133 | 44 | 113 | 0.0 | 0.0 | 0.00 | 0.32 | 0.31 | 95 | 1012.7 |
| 20260509120634 | 44 | 113 | 0.0 | 0.0 | 0.00 | 0.32 | 0.31 | 95 | 1012.7 |
| 20260509115632 | 44 | 144 | 0.0 | 0.0 | 0.01 | 0.32 | 0.31 | 95 | 1012.8 |
| 20260509115131 | 44 | 144 | 0.0 | 0.0 | 0.01 | 0.32 | 0.31 | 95 | 1012.8 |
| 20260509114631 | 44 | 144 | 0.0 | 0.0 | 0.01 | 0.32 | 0.31 | 95 | 1012.9 |
| 20260509114134 | 44 | 144 | 0.0 | 0.0 | 0.02 | 0.32 | 0.31 | 95 | 1012.8 |
| 20260509113632 | 44 | 144 | 0.0 | 0.0 | 0.02 | 0.32 | 0.31 | 95 | 1012.9 |
| 20260509113132 | 44 | 144 | 0.0 | 0.0 | 0.02 | 0.32 | 0.31 | 95 | 1012.8 |
| 20260509112632 | 44 | 144 | 0.0 | 0.0 | 0.02 | 0.32 | 0.31 | 95 | 1012.8 |
| 20260509112131 | 44 | 144 | 0.0 | 0.0 | 0.02 | 0.32 | 0.31 | 95 | 1012.6 |
| 20260509111632 | 44 | 144 | 0.0 | 0.0 | 0.02 | 0.32 | 0.31 | 95 | 1012.7 |
| 20260509111131 | 44 | 144 | 0.0 | 0.0 | 0.02 | 0.32 | 0.31 | 95 | 1012.8 |
| 20260509110632 | 43 | 144 | 0.0 | 0.0 | 0.02 | 0.32 | 0.31 | 95 | 1012.8 |
| 20260509110130 | 44 | 179 | 0.0 | 0.0 | 0.01 | 0.31 | 0.30 | 95 | 1012.8 |
| 20260509105631 | 44 | 179 | 0.0 | 0.0 | 0.02 | 0.31 | 0.30 | 95 | 1012.8 |
| 20260509105132 | 43 | 179 | 0.0 | 0.0 | 0.02 | 0.31 | 0.30 | 95 | 1012.7 |
| 20260509104631 | 43 | 179 | 0.0 | 0.0 | 0.02 | 0.31 | 0.30 | 95 | 1012.7 |
| 20260509104134 | 43 | 111 | 0.0 | 0.0 | 0.02 | 0.30 | 0.29 | 95 | 1012.8 |
| 20260509104130 | 43 | 179 | 0.0 | 0.0 | 0.02 | 0.30 | 0.29 | 95 | 1012.8 |
| 20260509103130 | 43 | 118 | 0.0 | 0.0 | 0.02 | 0.30 | 0.29 | 95 | 1012.8 |
| 20260509102629 | 43 | 118 | 0.0 | 0.0 | 0.03 | 0.30 | 0.29 | 95 | 1012.7 |
| 20260509102129 | 43 | 118 | 0.0 | 0.0 | 0.03 | 0.30 | 0.29 | 95 | 1012.7 |
| 20260509101629 | 43 | 118 | 0.0 | 0.0 | 0.03 | 0.30 | 0.29 | 94 | 1012.8 |
| 20260509101132 | 43 | 118 | 0.0 | 0.0 | 0.04 | 0.30 | 0.29 | 94 | 1012.7 |
| 20260509101128 | 43 | 118 | 0.0 | 0.0 | 0.04 | 0.30 | 0.29 | 94 | 1012.7 |
| 20260509100747 | 43 | 121 | 0.0 | 0.0 | 0.04 | 0.29 | 0.28 | 94 | 1012.9 |
| 20260509100126 | 43 | 120 | 0.0 | 0.0 | 0.05 | 0.30 | 0.29 | 94 | 1012.8 |